| time (UTC) | temp F | wind direction | speed MPH | gust MPH | rain 1hr in | rain 24hr in | rain mn in | humidity % | barometer mb |
| 20260510125329 | 72 | 336 | 0.0 | 0.0 | 0.00 | 0.00 | 0.00 | 30 | 1008.2 |
| 20260510124335 | 72 | 329 | 0.0 | 0.0 | 0.00 | 0.00 | 0.00 | 29 | 1008.0 |
| 20260510123345 | 72 | 312 | 0.0 | 0.0 | 0.00 | 0.00 | 0.00 | 27 | 1007.9 |
| 20260510122333 | 73 | 326 | 0.0 | 0.0 | 0.00 | 0.00 | 0.00 | 28 | 1007.9 |
| 20260510121339 | 73 | 326 | 0.0 | 0.0 | 0.00 | 0.00 | 0.00 | 25 | 1007.7 |
| 20260510120329 | 73 | 326 | 0.0 | 0.0 | 0.00 | 0.00 | 0.00 | 25 | 1007.7 |
| 20260510115340 | 73 | 326 | 0.0 | 0.0 | 0.00 | 0.00 | 0.00 | 25 | 1007.7 |
| 20260510114328 | 74 | 326 | 0.0 | 0.0 | 0.00 | 0.00 | 0.00 | 25 | 1007.8 |
| 20260510113334 | 74 | 347 | 0.0 | 0.0 | 0.00 | 0.00 | 0.00 | 24 | 1007.7 |
| 20260510112342 | 74 | 347 | 0.0 | 0.0 | 0.00 | 0.00 | 0.00 | 24 | 1007.8 |
| 20260510111333 | 74 | 342 | 0.0 | 0.0 | 0.00 | 0.00 | 0.00 | 24 | 1007.6 |
| 20260510110340 | 75 | 342 | 0.0 | 0.0 | 0.00 | 0.00 | 0.00 | 24 | 1007.5 |
| 20260510105349 | 75 | 342 | 0.0 | 0.0 | 0.00 | 0.00 | 0.00 | 23 | 1007.3 |
| 20260510104335 | 76 | 342 | 0.0 | 0.0 | 0.00 | 0.00 | 0.00 | 23 | 1007.2 |
| 20260510103326 | 76 | 342 | 0.0 | 0.0 | 0.00 | 0.00 | 0.00 | 22 | 1007.3 |
| 20260510102334 | 76 | 342 | 0.0 | 0.0 | 0.00 | 0.00 | 0.00 | 21 | 1007.2 |
| 20260510101401 | 77 | 342 | 0.0 | 0.0 | 0.00 | 0.00 | 0.00 | 21 | 1007.3 |
| 20260510100328 | 77 | 342 | 0.0 | 0.0 | 0.00 | 0.00 | 0.00 | 21 | 1007.1 |
| 20260510095339 | 77 | 342 | 0.0 | 0.0 | 0.00 | 0.00 | 0.00 | 20 | 1006.9 |
| 20260510094327 | 78 | 342 | 0.0 | 0.0 | 0.00 | 0.00 | 0.00 | 19 | 1006.9 |
| 20260510093334 | 78 | 342 | 0.0 | 0.0 | 0.00 | 0.00 | 0.00 | 20 | 1006.9 |
| 20260510092340 | 78 | 355 | 0.0 | 0.0 | 0.00 | 0.00 | 0.00 | 21 | 1006.9 |
| 20260510091331 | 78 | 355 | 0.0 | 0.0 | 0.00 | 0.00 | 0.00 | 21 | 1006.8 |
| 20260510090339 | 79 | 355 | 0.0 | 0.0 | 0.00 | 0.00 | 0.00 | 21 | 1006.7 |
| 20260510085327 | 80 | 312 | 0.0 | 0.0 | 0.00 | 0.00 | 0.00 | 21 | 1006.7 |
| 20260510084333 | 80 | 264 | 0.0 | 0.0 | 0.00 | 0.00 | 0.00 | 20 | 1006.7 |
| 20260510083344 | 81 | 221 | 0.0 | 0.0 | 0.00 | 0.00 | 0.00 | 19 | 1006.6 |
| 20260510082329 | 82 | 220 | 0.0 | 0.0 | 0.00 | 0.00 | 0.00 | 17 | 1006.6 |
| 20260510081336 | 83 | 302 | 0.0 | 0.0 | 0.00 | 0.00 | 0.00 | 18 | 1006.5 |
| 20260510080343 | 83 | 302 | 0.0 | 0.0 | 0.00 | 0.00 | 0.00 | 17 | 1006.5 |
| 20260510075334 | 85 | 302 | 0.0 | 0.0 | 0.00 | 0.00 | 0.00 | 16 | 1006.6 |
| 20260510074342 | 85 | 302 | 0.0 | 0.0 | 0.00 | 0.00 | 0.00 | 15 | 1006.6 |
| 20260510073329 | 86 | 302 | 0.0 | 0.0 | 0.00 | 0.00 | 0.00 | 14 | 1006.6 |
| 20260510072338 | 87 | 302 | 0.0 | 0.0 | 0.00 | 0.00 | 0.00 | 13 | 1006.5 |
| 20260510071329 | 88 | 302 | 0.0 | 0.0 | 0.00 | 0.00 | 0.00 | 12 | 1006.5 |
| 20260510070337 | 88 | 282 | 0.0 | 0.0 | 0.00 | 0.00 | 0.00 | 12 | 1006.5 |
| 20260510065344 | 89 | 289 | 0.0 | 3.0 | 0.00 | 0.00 | 0.00 | 12 | 1006.4 |
| 20260510064335 | 89 | 272 | 0.0 | 6.0 | 0.00 | 0.00 | 0.00 | 12 | 1006.4 |
| 20260510063343 | 89 | 263 | 1.0 | 7.0 | 0.00 | 0.00 | 0.00 | 12 | 1006.4 |
| 20260510062350 | 90 | 286 | 0.0 | 8.0 | 0.00 | 0.00 | 0.00 | 12 | 1006.2 |
| 20260510061357 | 90 | 261 | 1.0 | 10.0 | 0.00 | 0.00 | 0.00 | 11 | 1006.1 |
| 20260510060344 | 90 | 261 | 0.0 | 8.0 | 0.00 | 0.00 | 0.00 | 12 | 1006.1 |
| 20260510055355 | 90 | 242 | 1.0 | 8.0 | 0.00 | 0.00 | 0.00 | 12 | 1006.1 |
| 20260510054400 | 91 | 267 | 1.0 | 7.0 | 0.00 | 0.00 | 0.00 | 12 | 1006.0 |
| 20260510053326 | 91 | 266 | 1.0 | 7.0 | 0.00 | 0.00 | 0.00 | 11 | 1005.9 |
| 20260510052335 | 92 | 275 | 3.0 | 9.0 | 0.00 | 0.00 | 0.00 | 11 | 1005.9 |
| 20260510051326 | 92 | 292 | 0.0 | 7.0 | 0.00 | 0.00 | 0.00 | 11 | 1006.0 |
| 20260510050334 | 92 | 291 | 0.0 | 9.0 | 0.00 | 0.00 | 0.00 | 11 | 1005.9 |
| 20260510045341 | 92 | 274 | 0.0 | 4.0 | 0.00 | 0.00 | 0.00 | 11 | 1005.8 |
| 20260510044327 | 93 | 276 | 2.0 | 6.0 | 0.00 | 0.00 | 0.00 | 11 | 1005.7 |
| 20260510043339 | 93 | 252 | 3.0 | 8.0 | 0.00 | 0.00 | 0.00 | 10 | 1005.6 |
| 20260510042326 | 94 | 265 | 2.0 | 10.0 | 0.00 | 0.00 | 0.00 | 11 | 1005.6 |
| 20260510041334 | 94 | 240 | 2.0 | 9.0 | 0.00 | 0.00 | 0.00 | 10 | 1005.4 |
| 20260510040401 | 94 | 290 | 0.0 | 6.0 | 0.00 | 0.00 | 0.00 | 10 | 1005.3 |
| 20260510035347 | 94 | 250 | 1.0 | 7.0 | 0.00 | 0.00 | 0.00 | 10 | 1005.2 |
| 20260510034337 | 95 | 233 | 1.0 | 8.0 | 0.00 | 0.00 | 0.00 | 10 | 1005.0 |
| 20260510033344 | 95 | 265 | 0.0 | 8.0 | 0.00 | 0.00 | 0.00 | 10 | 1004.9 |
| 20260510032333 | 96 | 273 | 1.0 | 7.0 | 0.00 | 0.00 | 0.00 | 9 | 1004.7 |
| 20260510031340 | 96 | 254 | 1.0 | 6.0 | 0.00 | 0.00 | 0.00 | 9 | 1004.6 |
| 20260510030333 | 96 | 257 | 2.0 | 9.0 | 0.00 | 0.00 | 0.00 | 9 | 1004.5 |
| 20260510025339 | 97 | 196 | 3.0 | 8.0 | 0.00 | 0.00 | 0.00 | 9 | 1004.4 |
| 20260510024327 | 97 | 259 | 2.0 | 8.0 | 0.00 | 0.00 | 0.00 | 9 | 1004.3 |
| 20260510023335 | 98 | 235 | 1.0 | 8.0 | 0.00 | 0.00 | 0.00 | 9 | 1004.2 |
| 20260510022326 | 98 | 251 | 2.0 | 11.0 | 0.00 | 0.00 | 0.00 | 8 | 1004.1 |
| 20260510021334 | 99 | 263 | 0.0 | 11.0 | 0.00 | 0.00 | 0.00 | 8 | 1004.1 |
| 20260510020341 | 99 | 281 | 4.0 | 11.0 | 0.00 | 0.00 | 0.00 | 8 | 1004.1 |
| 20260510015349 | 100 | 251 | 2.0 | 10.0 | 0.00 | 0.00 | 0.00 | 8 | 1004.0 |
| 20260510014359 | 100 | 237 | 1.0 | 13.0 | 0.00 | 0.00 | 0.00 | 8 | 1004.0 |
| 20260510013326 | 101 | 264 | 7.0 | 13.0 | 0.00 | 0.00 | 0.00 | 8 | 1003.9 |
| 20260510012333 | 101 | 297 | 4.0 | 12.0 | 0.00 | 0.00 | 0.00 | 8 | 1004.0 |
| 20260510011341 | 102 | 278 | 4.0 | 11.0 | 0.00 | 0.00 | 0.00 | 8 | 1004.0 |
| 20260510010333 | 102 | 294 | 2.0 | 12.0 | 0.00 | 0.00 | 0.00 | 8 | 1003.9 |
| 20260510005341 | 102 | 293 | 5.0 | 13.0 | 0.00 | 0.00 | 0.00 | 8 | 1004.0 |
| 20260510004349 | 102 | 275 | 7.0 | 12.0 | 0.00 | 0.00 | 0.00 | 8 | 1004.0 |
| 20260510003353 | 103 | 215 | 1.0 | 10.0 | 0.00 | 0.00 | 0.00 | 9 | 1003.9 |
| 20260510002341 | 103 | 309 | 5.0 | 12.0 | 0.00 | 0.00 | 0.00 | 9 | 1004.0 |
| 20260510001333 | 103 | 327 | 3.0 | 17.0 | 0.00 | 0.00 | 0.00 | 9 | 1004.0 |
| 20260510000403 | 103 | 263 | 4.0 | 13.0 | 0.00 | 0.00 | 0.00 | 9 | 1004.1 |
| 20260509235327 | 103 | 259 | 3.0 | 10.0 | 0.00 | 0.00 | 0.00 | 9 | 1004.1 |
| 20260509234334 | 104 | 327 | 7.0 | 14.0 | 0.00 | 0.00 | 0.00 | 9 | 1004.3 |
| 20260509233341 | 104 | 165 | 2.0 | 12.0 | 0.00 | 0.00 | 0.00 | 9 | 1004.4 |
| 20260509232329 | 104 | 217 | 4.0 | 9.0 | 0.00 | 0.00 | 0.00 | 9 | 1004.4 |
| 20260509231338 | 104 | 256 | 4.0 | 8.0 | 0.00 | 0.00 | 0.00 | 9 | 1004.5 |
| 20260509230329 | 104 | 327 | 4.0 | 11.0 | 0.00 | 0.00 | 0.00 | 9 | 1004.6 |
| 20260509225355 | 104 | 39 | 2.0 | 10.0 | 0.00 | 0.00 | 0.00 | 9 | 1004.6 |
| 20260509224343 | 103 | 5 | 6.0 | 11.0 | 0.00 | 0.00 | 0.00 | 9 | 1004.7 |
| 20260509223331 | 104 | 223 | 2.0 | 10.0 | 0.00 | 0.00 | 0.00 | 9 | 1004.9 |
| 20260509222338 | 104 | 257 | 2.0 | 8.0 | 0.00 | 0.00 | 0.00 | 9 | 1005.0 |
| 20260509221330 | 104 | 266 | 5.0 | 13.0 | 0.00 | 0.00 | 0.00 | 9 | 1005.2 |
| 20260509220336 | 104 | 116 | 4.0 | 9.0 | 0.00 | 0.00 | 0.00 | 9 | 1005.4 |
| 20260509215343 | 103 | 261 | 2.0 | 17.0 | 0.00 | 0.00 | 0.00 | 8 | 1005.6 |
| 20260509214335 | 103 | 269 | 2.0 | 10.0 | 0.00 | 0.00 | 0.00 | 8 | 1005.7 |
| 20260509213344 | 103 | 287 | 5.0 | 11.0 | 0.00 | 0.00 | 0.00 | 8 | 1005.9 |
| 20260509212351 | 103 | 222 | 3.0 | 10.0 | 0.00 | 0.00 | 0.00 | 9 | 1006.0 |
| 20260509211337 | 103 | 173 | 4.0 | 10.0 | 0.00 | 0.00 | 0.00 | 9 | 1006.2 |
| 20260509210405 | 103 | 224 | 5.0 | 11.0 | 0.00 | 0.00 | 0.00 | 8 | 1006.4 |
| 20260509205354 | 102 | 292 | 3.0 | 11.0 | 0.00 | 0.00 | 0.00 | 10 | 1006.5 |
| 20260509204341 | 102 | 179 | 4.0 | 8.0 | 0.00 | 0.00 | 0.00 | 9 | 1006.7 |
| 20260509203330 | 102 | 153 | 2.0 | 6.0 | 0.00 | 0.00 | 0.00 | 10 | 1006.9 |
| 20260509202338 | 101 | 231 | 2.0 | 8.0 | 0.00 | 0.00 | 0.00 | 11 | 1006.9 |
| 20260509201329 | 100 | 312 | 5.0 | 10.0 | 0.00 | 0.00 | 0.00 | 11 | 1007.2 |
| 20260509200336 | 100 | 300 | 4.0 | 10.0 | 0.00 | 0.00 | 0.00 | 11 | 1007.3 |
| 20260509195345 | 100 | 326 | 2.0 | 8.0 | 0.00 | 0.00 | 0.00 | 11 | 1007.5 |
| 20260509194331 | 100 | 255 | 4.0 | 9.0 | 0.00 | 0.00 | 0.00 | 11 | 1007.6 |
| 20260509193343 | 100 | 296 | 0.0 | 4.0 | 0.00 | 0.00 | 0.00 | 11 | 1007.7 |
| 20260509192329 | 99 | 69 | 2.0 | 7.0 | 0.00 | 0.00 | 0.00 | 12 | 1007.8 |
| 20260509191336 | 98 | 20 | 2.0 | 4.0 | 0.00 | 0.00 | 0.00 | 12 | 1008.1 |
| 20260509190326 | 98 | 239 | 2.0 | 5.0 | 0.00 | 0.00 | 0.00 | 13 | 1008.2 |
| 20260509185335 | 98 | 67 | 1.0 | 3.0 | 0.00 | 0.00 | 0.00 | 12 | 1008.2 |
| 20260509184343 | 98 | 250 | 0.0 | 3.0 | 0.00 | 0.00 | 0.00 | 12 | 1008.4 |
| 20260509183329 | 97 | 5 | 1.0 | 5.0 | 0.00 | 0.00 | 0.00 | 13 | 1008.5 |
| 20260509182337 | 97 | 346 | 3.0 | 5.0 | 0.00 | 0.00 | 0.00 | 13 | 1008.7 |
| 20260509181349 | 96 | 340 | 2.0 | 4.0 | 0.00 | 0.00 | 0.00 | 13 | 1008.8 |
| 20260509180335 | 96 | 155 | 2.0 | 4.0 | 0.00 | 0.00 | 0.00 | 14 | 1009.0 |
| 20260509175343 | 96 | 175 | 2.0 | 6.0 | 0.00 | 0.00 | 0.00 | 14 | 1009.1 |
| 20260509174329 | 95 | 101 | 0.0 | 3.0 | 0.00 | 0.00 | 0.00 | 14 | 1009.1 |
| 20260509173400 | 94 | 298 | 0.0 | 3.0 | 0.00 | 0.00 | 0.00 | 14 | 1009.2 |
| 20260509172347 | 93 | 230 | 0.0 | 8.0 | 0.00 | 0.00 | 0.00 | 15 | 1009.2 |
| 20260509171333 | 92 | 173 | 2.0 | 5.0 | 0.00 | 0.00 | 0.00 | 15 | 1009.2 |
| 20260509170339 | 92 | 9 | 1.0 | 5.0 | 0.00 | 0.00 | 0.00 | 16 | 1009.2 |
| 20260509165330 | 91 | 140 | 1.0 | 5.0 | 0.00 | 0.00 | 0.00 | 18 | 1009.3 |
| 20260509164339 | 90 | 59 | 1.0 | 6.0 | 0.00 | 0.00 | 0.00 | 17 | 1009.3 |
| 20260509163326 | 90 | 24 | 2.0 | 5.0 | 0.00 | 0.00 | 0.00 | 17 | 1009.3 |
| 20260509162335 | 90 | 62 | 3.0 | 6.0 | 0.00 | 0.00 | 0.00 | 17 | 1009.3 |
| 20260509161327 | 89 | 101 | 2.0 | 5.0 | 0.00 | 0.00 | 0.00 | 18 | 1009.3 |
| 20260509160335 | 88 | 82 | 2.0 | 7.0 | 0.00 | 0.00 | 0.00 | 19 | 1009.4 |
| 20260509155341 | 87 | 98 | 2.0 | 6.0 | 0.00 | 0.00 | 0.00 | 19 | 1009.4 |
| 20260509154329 | 87 | 46 | 3.0 | 7.0 | 0.00 | 0.00 | 0.00 | 20 | 1009.3 |
| 20260509153340 | 86 | 97 | 2.0 | 6.0 | 0.00 | 0.00 | 0.00 | 20 | 1009.2 |
| 20260509152348 | 85 | 107 | 2.0 | 6.0 | 0.00 | 0.00 | 0.00 | 20 | 1009.2 |
| 20260509151334 | 84 | 88 | 1.0 | 6.0 | 0.00 | 0.00 | 0.00 | 21 | 1009.1 |
| 20260509150342 | 84 | 144 | 3.0 | 8.0 | 0.00 | 0.00 | 0.00 | 21 | 1009.2 |
| 20260509145354 | 83 | 108 | 0.0 | 0.0 | 0.00 | 0.00 | 0.00 | 23 | 1009.1 |
| 20260509143334 | 80 | 94 | 0.0 | 0.0 | 0.00 | 0.00 | 0.00 | 25 | 1009.1 |
| 20260509142326 | 79 | 60 | 0.0 | 0.0 | 0.00 | 0.00 | 0.00 | 26 | 1009.0 |
| 20260509141333 | 78 | 63 | 0.0 | 0.0 | 0.00 | 0.00 | 0.00 | 26 | 1009.0 |
| 20260509140400 | 77 | 82 | 0.0 | 0.0 | 0.00 | 0.00 | 0.00 | 28 | 1009.0 |
| 20260509135405 | 76 | 84 | 1.0 | 6.0 | 0.00 | 0.00 | 0.00 | 28 | 1008.9 |
| 20260509134331 | 75 | 78 | 0.0 | 3.0 | 0.00 | 0.00 | 0.00 | 29 | 1008.7 |
| 20260509133402 | 75 | 76 | 0.0 | 1.0 | 0.00 | 0.00 | 0.00 | 29 | 1008.6 |
| 20260509132406 | 74 | 60 | 0.0 | 1.0 | 0.00 | 0.00 | 0.00 | 30 | 1008.4 |
| 20260509131331 | 73 | 98 | 0.0 | 1.0 | 0.00 | 0.00 | 0.00 | 30 | 1008.4 |
| 20260509130357 | 73 | 70 | 0.0 | 0.0 | 0.00 | 0.00 | 0.00 | 29 | 1008.2 |